CZ-6A DEB, 60808

Orbit data source: Space-Track

CZ-6A DEB, 60808 is space debris in LEO originally from a launch on Tue, 06 Aug 2024 UTC launched from the Taiyaun Space Center, China (TSC). Debris objects in space refer to the collection of defunct objects orbiting the Earth. Examples of debris include non-operational satellites, rocket bodies, and fragments generated from explosions, collisions, or faulty payload assembly.

Loading next visibility...
Identifier
60808, 2024-140GK
Orbit
LEO
Country
Flag of CNCN / PRC
Related business
Manufacturer
SAST
Mission
Spacecraft
Bus & Motor
Unknown
Mass
Unknown
Launch date (UTC)
2024-08-06 (2 years ago)
Launch vehicle
Unknown
Launch site
Taiyaun Space Center, China (TSC)
Object type
Payload
Rocket body
Debris
Shape & HBR
Unknown shape, 0.2 m
Radar Cross Section
Medium (>0.1 m² and <1 m²)

Expand to show TLE details & history
Last TLE update: 16 hours ago

TLE from 16 hours ago
0 CZ-6A DEB
1 60808U 24140GK  26171.29691863  .00000265  00000-0  55098-4 0  9998
2 60808  89.0640 275.2625 0112112 249.0076 109.9109 14.53306411 98358
Epoch: 2026-06-20T07:07Z
TLE epoch observation values (Epoch: 2026-06-20T07:07:33.769Z)
Latitude
-0.0001°
Longitude
-100.14177°
Altitude
745.842 km
Speed
7.467 km/s
True Right ascension
18h 21m 02s
True Declination
0° 00' 00"
Sunlit
Object was in full shadow at epoch
Visualization orbit readout
Latitude
Unknown
Longitude
Unknown
Altitude
Unknown
Speed
Unknown
Apparent Right ascension
Unknown
Apparent Declination
Unknown
Sunlit
N/A
Visualization observer readout
Local Sidereal Time
10:19:05
Azimuth
Unknown
Elevation
Unknown
Doppler factor
Unknown
Orbital elements
Apogee altitude
791.259 km
Perigee altitude
632.286 km
Semi-major axis
7,089.91 km
Eccentricity
0.01121
Inclination
89.064°
RAAN
275.2625°
Arg. of periapsis
249.0076°
True anomaly
111.11299°
Mean anomaly
109.9109°
Eccentric anomaly
110.51253°
Mean motion
3.63565 °/min
Orbital period
99.02 mins
BSTAR
0.000055098
Loading maneuver chart data...
Computing Atmospheric mass density...
Loading historical data...
Loading historical data...
Loading historical data...
Loading historical data...
Loading historical data...
Loading historical data...
Loading historical data...

Documentation

Showing up to 5 results
|